Flag for Mauritania Weather past 2 weeks in Nouakchott, Mauritania

Now
79 °F

Clear.


Feels Like: 79 °F
Forecast: 75 / 105 °F
Wind: 9 mph from North

Location: Nouakchott Airport


UV Index: 10 (Very high)

Visibility: 5 mi


Pressure: 29.80 "Hg

Humidity: 32%

Dew point: 46 °F

Location of NouakchottLocation

Historic Weather in Nouakchott

°F

Nouakchott temperature yesterday

Maximum temperature yesterday: 109 °F (at 1:00 PM)
Minimum temperature yesterday: 75 °F (at 11:30 PM)
Average temperature yesterday: 88 °F

Past Weeks' High & Low Weather Summary

 TemperatureHumidityPressure
High109 °F (Apr 17, 1:30 PM)100% (Apr 7, 3:30 AM)29.98 "Hg (Apr 7, 3:30 AM)
Low63 °F (Apr 7, 3:30 AM)7% (Apr 17, 2:00 PM)29.71 "Hg (Apr 18, 5:00 PM)
Average75 °F57%29.87 "Hg
* Reported Apr 4 3:00 AM — Apr 19 3:00 AM, Nouakchott, Weather by CustomWeather, © 2014

Note: Actual official high and low records may vary slightly from our data, if they occured in-between our weather recording intervals... More about our weather records

Advertising

Historic Weather Conditions — Data for Previous 24 hours

 ConditionsComfort  
Time TempWeatherWind HumidityBarometerVisibility
3:00 AM
Apr 19
81 °FClear.10 mph30%29.80 "Hg5 mi
2:00 AM81 °FClear.10 mph34%29.83 "Hg5 mi
1:30 AM79 °FClear.10 mph42%29.83 "Hg5 mi
1:00 AM77 °FClear.7 mph54%29.83 "Hg5 mi
12:30 AM75 °FClear.6 mph61%29.83 "Hg5 mi
12:00 AM75 °FClear.6 mph61%29.83 "Hg5 mi
11:30 PM
Apr 18
75 °FClear.8 mph61%29.83 "Hg5 mi
11:00 PM77 °FClear.10 mph57%29.83 "Hg5 mi
10:30 PM77 °FClear.9 mph57%29.83 "Hg5 mi
10:00 PM77 °FClear.10 mph57%29.80 "Hg5 mi
9:30 PM79 °FClear.9 mph51%29.80 "Hg5 mi
9:00 PM79 °FClear.12 mph51%29.80 "Hg5 mi
8:30 PM77 °FClear.15 mph54%29.77 "Hg5 mi
8:00 PM79 °FClear.13 mph51%29.77 "Hg5 mi
7:30 PM79 °FClear.15 mph51%29.77 "Hg5 mi
7:00 PM81 °FClear.17 mph48%29.74 "Hg5 mi
6:30 PM82 °FClear.16 mph40%29.74 "Hg5 mi
6:00 PM86 °FClear.16 mph35%29.74 "Hg5 mi
5:30 PM91 °FClear.13 mph26%29.74 "Hg5 mi
5:00 PM91 °FClear.17 mph28%29.71 "Hg5 mi
4:30 PM95 °FClear.13 mph22%29.74 "Hg5 mi
4:00 PM109 °FClear.12 mph7%29.74 "Hg5 mi
3:30 PM109 °FClear.13 mph7%29.74 "Hg5 mi
3:00 PM109 °FClear.9 mph7%29.74 "Hg5 mi
2:30 PM109 °FClear.12 mph8%29.74 "Hg5 mi
2:00 PM109 °FClear.17 mph8%29.77 "Hg5 mi
1:30 PM109 °FClear.18 mph7%29.77 "Hg5 mi
1:00 PM109 °FClear.17 mph7%29.80 "Hg5 mi
12:30 PM108 °FClear.18 mph8%29.80 "Hg5 mi
12:00 PM106 °FClear.17 mph9%29.83 "Hg5 mi
11:30 AM104 °FClear.17 mph9%29.83 "Hg5 mi
11:00 AM102 °FClear.18 mph9%29.83 "Hg5 mi
10:00 AM99 °FClear.17 mph10%29.83 "Hg5 mi
9:30 AM95 °FClear.15 mph11%29.83 "Hg5 mi
9:00 AM91 °FClear.14 mph14%29.83 "Hg5 mi
8:30 AM86 °FClear.12 mph18%29.83 "Hg5 mi
8:00 AM82 °FClear.9 mph20%29.83 "Hg5 mi
7:30 AM79 °FClear.8 mph24%29.83 "Hg5 mi
7:00 AM77 °FClear.9 mph26%29.80 "Hg5 mi
6:30 AM77 °FClear.10 mph26%29.80 "Hg5 mi
6:00 AM79 °FClear.13 mph24%29.80 "Hg5 mi
5:30 AM81 °FClear.10 mph23%29.80 "Hg5 mi
5:00 AM79 °FClear.10 mph28%29.80 "Hg5 mi
4:30 AM79 °FClear.8 mph34%29.80 "Hg5 mi
4:00 AM79 °FClear.8 mph37%29.77 "Hg5 mi
Weather by CustomWeather, © 2014

See weather overview